[[{"header":{"parameterUnit":"m.s-1","parameterCategory":1,"la1":30.2991,"la2":30.254,"lo1":-89.0895,"lo2":-89.0444,"dy":0.0017,"dx":0.0017,"nx":28,"ny":28,"refTime":"2023-09-17T21:00:00:Z","depth":0,"parameterNumber":2,"parameterNumberName":"U-component_of_WINDS"},"data":[0,0,0,0,0,0,0,0,0,0,0,0,0,0,0,0,0,0,0,0,0,0,0,0,0,0,0,0,0,0,0,0,0,0,0,0,0,0,0,0,0,0,0,0,0,0,0,0,0,0,0,0,0,0,0,0,0,0,-3.5217,-3.5218,0,-3.5318,-3.532,-3.5321,-3.5229,-3.5225,-3.5221,-3.5218,-3.5329,-3.5335,-3.5342,0,0,0,0,0,0,0,0,0,0,0,0,0,-3.4951,-3.4956,-3.5217,-3.5218,-3.522,-3.5318,-3.532,-3.5321,-3.523,-3.5225,-3.522,-3.5216,-3.5327,-3.5334,-3.5342,0,0,0,0,0,0,0,0,0,0,0,0,0,-3.5061,-3.4958,-3.5217,-3.5186,-3.5184,-3.5318,-3.532,-3.5321,-3.5231,-3.5225,-3.5219,-3.5214,-3.5324,-3.5334,-3.5343,-3.5515,0,0,-3.5373,-3.5377,0,0,0,0,0,0,0,0,-3.5055,-3.5071,-3.5189,-3.5188,-3.5186,-3.5255,-3.5266,-3.5387,-3.5232,-3.5213,-3.5218,-3.5211,-3.5309,-3.532,-3.5351,-3.5521,-3.5525,-3.5374,-3.5379,-3.5384,-3.5386,0,0,0,0,0,0,0,-3.5047,-3.5066,-3.5257,-3.5191,-3.5189,-3.5169,-3.5178,-3.5289,-3.5292,-3.5214,-3.5208,-3.5221,-3.5308,-3.5342,-3.5353,-3.5527,-3.5373,-3.5382,-3.5388,-3.5392,-3.5841,-3.5847,0,0,0,0,0,0,-3.5042,-3.506,-3.5254,-3.526,-3.5105,-3.5178,-3.5189,-3.5239,-3.529,-3.5293,-3.5225,-3.5216,-3.5329,-3.5342,-3.5357,-3.556,-3.5384,-3.5393,-3.5398,-3.5835,-3.5842,-3.5849,0,0,0,0,0,0,-3.5037,-3.506,-3.525,-3.5158,-3.5181,-3.5188,-3.5246,-3.5244,-3.5278,-3.5299,-3.5299,-3.526,-3.5325,-3.5343,-3.5476,-3.5563,-3.5397,-3.5406,-3.5828,-3.5837,-3.5846,-3.5969,0,0,0,0,0,0,-3.5029,-3.5059,-3.5123,-3.5161,-3.5186,-3.5366,-3.5251,-3.525,-3.5294,-3.5283,-3.5331,-3.5334,-3.5322,-3.5462,-3.5485,-3.5573,-3.5413,-3.582,-3.5832,-3.5843,-3.5957,-3.5981,-3.6001,0,0,0,0,0,-3.502,-3.5155,-3.5126,-3.515,-3.5266,-3.5371,-3.5386,-3.5367,-3.5302,-3.5367,-3.538,-3.5332,-3.555,-3.5476,-3.5502,-3.5594,-3.5814,-3.5829,-3.5842,-3.5947,-3.5976,-3.6001,0,0,0,0,0,0,-3.513,-3.516,-3.5128,-3.5279,-3.5323,-3.5355,-3.5436,-3.5399,-3.5464,-3.5451,-3.5428,-3.5439,-3.5578,-3.56,-3.5517,-3.5762,-3.5672,-3.5692,-3.5743,-3.5771,-3.5793,-3.5784,-3.5421,0,0,0,0,0,-3.5171,-3.5252,-3.5274,-3.5405,-3.5429,-3.5429,-3.5474,-3.5456,-3.5501,-3.552,-3.5542,-3.559,-3.5669,-3.5722,-3.5796,-3.596,-3.5969,-3.6036,-3.6059,-3.6077,-3.6094,-3.6181,-3.621,-3.5894,-3.5894,-3.5894,0,0,-3.5258,-3.5284,-3.5337,-3.5428,-3.546,-3.5545,-3.5445,-3.554,-3.5603,-3.5535,-3.5659,-3.5679,-3.5731,-3.5879,-3.5946,-3.5901,-3.6183,-3.6095,-3.6109,-3.6116,-3.6198,-3.6228,-3.6255,-3.5904,-3.5902,-3.5901,0,0,-3.5459,-3.5488,-3.5599,-3.5632,-3.568,-3.568,-3.5707,-3.5745,-3.5754,-3.5878,-3.5828,-3.5905,-3.6042,-3.608,-3.6117,-3.6333,-3.6291,-3.6359,-3.6474,-3.656,-3.6585,-3.6607,-3.6682,-3.6709,-3.6376,-3.6376,-3.6376,0,-3.5562,-3.5685,-3.5661,-3.5759,-3.58,-3.574,-3.5853,-3.5888,-3.5959,-3.599,-3.5939,-3.6108,-3.6139,-3.6295,-3.6347,-3.638,-3.641,-3.6352,-3.6583,-3.6604,-3.6625,-3.6696,-3.6724,-3.6383,-3.6383,-3.6382,-3.6381,0,-3.5808,-3.5895,-3.598,-3.6046,-3.6098,-3.6203,-3.6196,-3.6252,-3.623,-3.6235,-3.6363,-3.6398,-3.6477,-3.6513,-3.6494,-3.6667,-3.6637,-3.6586,-3.6493,-3.6663,-3.6729,-3.6756,-3.6394,-3.6392,-3.6389,-3.6388,0,0,-3.6079,-3.6131,-3.6162,-3.6191,-3.624,-3.6308,-3.6411,-3.6486,-3.6533,-3.6586,-3.6671,-3.6788,-3.6739,-3.6782,-3.6767,-3.6842,-3.7008,-3.678,-3.6781,-3.6819,-3.7199,-3.7236,-3.7268,-3.6982,-3.6987,-3.6991,-3.7194,0,-3.628,-3.6455,-3.6437,-3.6604,-3.6684,-3.6629,-3.6719,-3.676,-3.6768,-3.6838,-3.6849,-3.6931,-3.6861,-3.6886,-3.6959,-3.6973,-3.7084,-3.6958,-3.7062,-3.7066,-3.7047,-3.7303,-3.7343,-3.7532,-3.722,-3.7225,-3.7228,0,-3.6536,-3.6594,-3.6769,-3.6804,-3.6837,-3.6918,-3.6984,-3.7052,-3.7098,-3.7099,-3.7147,-3.7118,-3.7223,-3.7131,-3.7275,-3.719,-3.7232,-3.7246,-3.7253,-3.7259,-3.7155,-3.7315,-3.7593,-3.762,-3.7269,-3.7266,-3.7263,0,-3.6713,-3.6836,-3.6955,-3.6982,-3.7028,-3.7085,-3.7108,-3.7147,-3.7193,-3.7253,-3.7282,-3.7355,-3.7394,-3.7452,-3.7444,-3.7378,-3.7591,-3.7498,-3.7594,-3.7595,-3.764,-3.7636,-3.7925,-3.7672,-3.7671,-3.7671,-3.767,0,-3.6937,-3.7046,-3.7035,-3.7108,-3.7229,-3.7208,-3.7328,-3.7344,-3.738,-3.7457,-3.7416,-3.7489,-3.7476,-3.755,-3.7545,-3.7665,-3.7684,-3.7688,-3.7685,-3.769,-3.7689,-3.7715,-3.77,-3.7678,-3.7676,-3.7675,-3.7674,0,-3.7154,-3.7151,-3.7277,-3.731,-3.732,-3.7407,-3.7436,-3.7506,-3.7511,-3.7608,-3.763,-3.7639,-3.7724,-3.7722,-3.7821,-3.7817,-3.7963,-3.7947,-3.7946,-3.7942,-3.8037,-3.8027,-3.835,-3.8391,-3.8114,-3.8116,-3.8119,0,-3.7295,-3.7377,-3.7418,-3.7464,-3.7489,-3.7567,-3.7612,-3.7596,-3.7646,-3.7704,-3.7768,-3.7848,-3.7911,-3.8049,-3.8066,-3.814,-3.8123,-3.8232,-3.8134,-3.8136,-3.8122,-3.8116,-3.8123,-3.825,-3.8253,-3.8256,-3.8258,0,-3.7546,-3.754,-3.7606,-3.7673,-3.7728,-3.778,-3.7828,-3.7869,-3.7859,-3.7917,-3.8002,-3.8051,-3.8149,-3.8229,-3.8301,-3.8325,-3.829,-3.8289,-3.8314,-3.8319,-3.8314,-3.8315,-3.7995,-3.8281,-3.8278,-3.8277,-3.8275,-3.8274,-3.7728,-3.7797,-3.7835,-3.7911,-3.7944,-3.799,-3.8056,-3.8069,-3.8138,-3.8215,-3.8203,-3.8297,-3.8342,-3.8433,-3.8465,-3.854,-3.8501,-3.854,-3.8549,-3.8557,-3.8566,-3.8304,-3.8553,-3.8553,-3.8552,-3.8551,-3.8551,0,-3.7973,-3.7995,-3.8065,-3.8131,-3.8191,-3.8151,-3.8202,-3.8255,-3.8337,-3.8381,-3.8443,-3.854,-3.8618,-3.8641,-3.8716,-3.8771,-3.8757,-3.8792,-3.8786,-3.8792,-3.8598,-3.8566,-3.8802,-3.8802,-3.8802,-3.8802,-3.8802,-3.8801,-3.8108,-3.8222,-3.8221,-3.8352,-3.8374,-3.8464,-3.8496,-3.8539,-3.8572,-3.8682,-3.8745,-3.8759,-3.8794,-3.8872,-3.8942,-3.8946,-3.8975,-3.9016,-3.9014,-3.8831,-3.8806,-3.8782,-3.8752,-3.9023,-3.9023,-3.9201,-3.9203,-3.9204]},{"header":{"parameterUnit":"m.s-1","parameterCategory":1,"la1":30.2991,"la2":30.254,"lo1":-89.0895,"lo2":-89.0444,"dy":0.0017,"dx":0.0017,"nx":28,"ny":28,"refTime":"2023-09-17T21:00:00:Z","depth":0,"parameterNumber":3,"parameterNumberName":"V-component_of_WINDS"},"data":[0,0,0,0,0,0,0,0,0,0,0,0,0,0,0,0,0,0,0,0,0,0,0,0,0,0,0,0,0,0,0,0,0,0,0,0,0,0,0,0,0,0,0,0,0,0,0,0,0,0,0,0,0,0,0,0,0,0,-0.7607,-0.7608,0,-0.7639,-0.7639,-0.7639,-0.7704,-0.7705,-0.7706,-0.7708,-0.7737,-0.7737,-0.7736,0,0,0,0,0,0,0,0,0,0,0,0,0,-0.7601,-0.7601,-0.7607,-0.7608,-0.7608,-0.7639,-0.7639,-0.764,-0.7704,-0.7705,-0.7707,-0.7708,-0.7737,-0.7737,-0.7736,0,0,0,0,0,0,0,0,0,0,0,0,0,-0.7615,-0.7601,-0.7607,-0.7644,-0.7647,-0.7639,-0.7639,-0.764,-0.7703,-0.7705,-0.7707,-0.7709,-0.7737,-0.7737,-0.7736,-0.7693,0,0,-0.7734,-0.7734,0,0,0,0,0,0,0,0,-0.7614,-0.7615,-0.7638,-0.7641,-0.7645,-0.7669,-0.7648,-0.7657,-0.7703,-0.7682,-0.7708,-0.771,-0.7713,-0.7714,-0.7716,-0.7695,-0.7696,-0.7734,-0.7734,-0.7733,-0.7733,0,0,0,0,0,0,0,-0.7613,-0.7614,-0.762,-0.7638,-0.7643,-0.7658,-0.7662,-0.765,-0.7686,-0.7684,-0.7689,-0.7692,-0.7715,-0.7716,-0.7717,-0.7696,-0.7734,-0.7733,-0.7733,-0.7733,-0.7642,-0.764,0,0,0,0,0,0,-0.7607,-0.7613,-0.7619,-0.7621,-0.7634,-0.7657,-0.7661,-0.766,-0.7686,-0.7692,-0.769,-0.7695,-0.7716,-0.7718,-0.7718,-0.767,-0.7733,-0.7733,-0.7732,-0.7644,-0.7641,-0.7639,0,0,0,0,0,0,-0.7607,-0.7607,-0.7617,-0.7618,-0.7621,-0.7655,-0.7652,-0.7659,-0.7661,-0.7691,-0.7697,-0.7685,-0.7718,-0.7719,-0.7699,-0.7671,-0.7732,-0.7732,-0.7646,-0.7643,-0.764,-0.7572,0,0,0,0,0,0,-0.7606,-0.7606,-0.7591,-0.7617,-0.762,-0.7598,-0.7651,-0.7658,-0.766,-0.7666,-0.7688,-0.7693,-0.772,-0.77,-0.7699,-0.7672,-0.7731,-0.7649,-0.7645,-0.7641,-0.7577,-0.7567,-0.7558,0,0,0,0,0,-0.7606,-0.757,-0.759,-0.759,-0.7602,-0.7596,-0.7598,-0.763,-0.7657,-0.7641,-0.7661,-0.7692,-0.7675,-0.7697,-0.7696,-0.7669,-0.7651,-0.7646,-0.7642,-0.7581,-0.7569,-0.7559,0,0,0,0,0,0,-0.7537,-0.7574,-0.7596,-0.7568,-0.7579,-0.7607,-0.7588,-0.7616,-0.7619,-0.7624,-0.7664,-0.7668,-0.7642,-0.7654,-0.7678,-0.7629,-0.7668,-0.7663,-0.7622,-0.7611,-0.7602,-0.7599,-0.7731,0,0,0,0,0,-0.7519,-0.7513,-0.7545,-0.7516,-0.7521,-0.7554,-0.7552,-0.7576,-0.7589,-0.7593,-0.7612,-0.7622,-0.7619,-0.7616,-0.7615,-0.758,-0.7585,-0.756,-0.7551,-0.7544,-0.7538,-0.752,-0.7509,-0.7624,-0.7624,-0.7624,0,0,-0.7481,-0.75,-0.7494,-0.7503,-0.7514,-0.7506,-0.7557,-0.7546,-0.754,-0.7592,-0.7574,-0.7588,-0.7602,-0.7574,-0.7562,-0.7583,-0.7508,-0.7538,-0.7531,-0.753,-0.7514,-0.7503,-0.7494,-0.7621,-0.7622,-0.7622,0,0,-0.7407,-0.7422,-0.74,-0.741,-0.7427,-0.745,-0.7444,-0.7469,-0.748,-0.7464,-0.7503,-0.7496,-0.749,-0.7498,-0.7502,-0.7433,-0.7461,-0.7431,-0.7383,-0.7365,-0.7356,-0.7348,-0.7322,-0.7313,-0.7426,-0.7426,-0.7426,0,-0.7357,-0.7347,-0.7384,-0.7371,-0.7374,-0.7422,-0.74,-0.7408,-0.7423,-0.7424,-0.7447,-0.7441,-0.7454,-0.7428,-0.7412,-0.7413,-0.7408,-0.7428,-0.7354,-0.7347,-0.734,-0.7316,-0.7306,-0.7422,-0.7423,-0.7423,-0.7424,0,-0.7285,-0.7277,-0.7257,-0.7272,-0.7273,-0.7255,-0.7289,-0.7285,-0.731,-0.7329,-0.7312,-0.7329,-0.7332,-0.7329,-0.7352,-0.7307,-0.7319,-0.7347,-0.7387,-0.7324,-0.7302,-0.7294,-0.7417,-0.7418,-0.7419,-0.742,0,0,-0.7166,-0.7203,-0.7195,-0.7203,-0.7226,-0.722,-0.7205,-0.7209,-0.7205,-0.7214,-0.7201,-0.7196,-0.7223,-0.7227,-0.7252,-0.7236,-0.718,-0.7267,-0.7268,-0.7249,-0.713,-0.7107,-0.7096,-0.72,-0.7198,-0.7197,-0.7129,0,-0.7097,-0.7073,-0.7106,-0.7074,-0.7068,-0.7114,-0.7101,-0.7113,-0.7131,-0.7128,-0.7148,-0.7143,-0.718,-0.7183,-0.7169,-0.7189,-0.7156,-0.7195,-0.7187,-0.7186,-0.718,-0.7085,-0.706,-0.6995,-0.712,-0.7119,-0.7118,0,-0.7011,-0.7018,-0.6985,-0.7011,-0.7009,-0.6997,-0.7004,-0.7,-0.7015,-0.703,-0.7035,-0.7065,-0.7051,-0.7091,-0.7072,-0.7098,-0.7097,-0.7106,-0.7105,-0.7104,-0.7147,-0.708,-0.6975,-0.6964,-0.7105,-0.7106,-0.7107,0,-0.6927,-0.6927,-0.6908,-0.6913,-0.6943,-0.6933,-0.6945,-0.6962,-0.6963,-0.6969,-0.697,-0.6974,-0.6975,-0.6978,-0.7008,-0.7035,-0.6985,-0.7028,-0.6996,-0.6995,-0.6981,-0.6981,-0.6873,-0.6983,-0.6984,-0.6984,-0.6984,0,-0.6844,-0.6822,-0.6871,-0.6858,-0.6835,-0.6875,-0.6851,-0.6867,-0.6882,-0.6874,-0.6915,-0.6906,-0.6947,-0.6943,-0.6967,-0.6947,-0.6948,-0.6958,-0.6965,-0.6954,-0.6952,-0.6952,-0.6957,-0.6981,-0.6982,-0.6982,-0.6983,0,-0.6744,-0.6777,-0.6758,-0.6789,-0.6796,-0.6778,-0.6803,-0.6793,-0.6815,-0.6804,-0.6804,-0.6838,-0.6834,-0.6866,-0.6868,-0.6885,-0.6853,-0.6868,-0.6848,-0.6852,-0.6818,-0.682,-0.6704,-0.6691,-0.6811,-0.681,-0.6809,0,-0.6689,-0.6673,-0.6702,-0.67,-0.671,-0.6706,-0.6708,-0.6746,-0.6746,-0.6763,-0.675,-0.6751,-0.6753,-0.6746,-0.677,-0.6772,-0.6787,-0.6746,-0.6787,-0.6777,-0.6785,-0.6785,-0.6783,-0.6737,-0.6735,-0.6734,-0.6733,0,-0.6586,-0.6603,-0.6604,-0.661,-0.6611,-0.6618,-0.6627,-0.6623,-0.6665,-0.6662,-0.666,-0.6662,-0.6666,-0.6665,-0.6673,-0.6684,-0.6715,-0.6721,-0.6713,-0.6701,-0.6689,-0.6694,-0.6823,-0.6722,-0.6724,-0.6724,-0.6725,-0.6725,-0.6506,-0.6494,-0.6513,-0.6513,-0.6524,-0.6532,-0.6524,-0.6546,-0.6545,-0.6552,-0.6575,-0.6569,-0.6585,-0.6598,-0.6607,-0.6602,-0.6622,-0.6611,-0.6608,-0.6605,-0.6598,-0.6692,-0.6604,-0.6604,-0.6605,-0.6605,-0.6605,0,-0.6404,-0.6419,-0.6419,-0.6431,-0.6431,-0.6462,-0.6474,-0.6472,-0.6466,-0.6479,-0.6481,-0.6479,-0.6479,-0.6504,-0.6508,-0.6499,-0.6513,-0.6498,-0.6498,-0.65,-0.6581,-0.6586,-0.6487,-0.6487,-0.6487,-0.6487,-0.6487,-0.6487,-0.6351,-0.6333,-0.6352,-0.634,-0.6355,-0.635,-0.6355,-0.6362,-0.6373,-0.6369,-0.637,-0.6387,-0.6405,-0.641,-0.6411,-0.6419,-0.6418,-0.6398,-0.6409,-0.6483,-0.6495,-0.6506,-0.6511,-0.6397,-0.6397,-0.633,-0.6329,-0.6328]}]]